Weather History for KHFD - December, 2012

Change the Weather History Date:

Tuesday, December 4, 2012

  Actual Average (KBDL) Record (KBDL)
Temperature  
Mean Temperature 44 °F 36 °F  
Max Temperature 57 °F 44 °F 71 °F (1998)
Min Temperature 30 °F 28 °F 2 °F (1906)
Degree Days  
Heating Degree Days 22 29  
Month to date heating degree days 114  
Since 1 July heating degree days 1321  
Cooling Degree Days 0 0  
Month to date cooling degree days 0  
Year to date cooling degree days 756  
Moisture  
Dew Point 36 °F    
Average Humidity 91    
Maximum Humidity 100    
Minimum Humidity 85    
Precipitation  
Precipitation 0.02 in 0.13 in 2.09 in (1968)
Month to date precipitation 0.51  
Year to date precipitation 42.92  
Snow  
Snow 0.00 in 0.10 in 4.20 in (1907)
Month to date snowfall 0.6  
Since 1 July snowfall 2.6  
Snow Depth -    
Sea Level Pressure  
Sea Level Pressure 30.24 in    
Wind  
Wind Speed 1 mph (South)    
Max Wind Speed 14 mph    
Max Gust Speed 20 mph    
Visibility 3 miles    
Events Fog , Rain    
T = Trace of Precipitation, MM = Missing Value Source: NWS Daily Summary

Daily Weather History Graph

Daily Weather History Graph

Search for Another Location

Airport or City:

Trip Planner

Search our weather history database for the weather conditions in past years. The results will help you decide how hot, cold, wet, or windy it might be!

Date:

Astronomy

Dec. 04, 2012 Rise Set
Actual Time 7:01 AM EST 4:20 PM EST
Civil Twilight 6:30 AM EST 4:51 PM EST
Nautical Twilight 5:55 AM EST 5:26 PM EST
Astronomical Twilight 5:22 AM EST 5:59 PM EST
Moon 10:08 PM EST (12/4) 10:51 AM EST (12/4)
Length of Visible Light 10h 20m
Length of Day
9h 18m
Waning Gibbous, 69% of the Moon is Illuminated
Dec 4
Waning Gibbous
Dec 6
Last Quarter
Dec 13
New
Dec 20
First Quarter
Dec 28
Full

Hourly Weather History & Observations

Time (EST) Temp. Windchill Dew Point Humidity Pressure Visibility Wind Dir Wind Speed Gust Speed Precip Events Conditions
12:14 AM 35.6 °F - 32.0 °F 87% 30.30 in 6.0 mi Calm Calm - N/A   Clear
12:56 AM 33.8 °F - 30.2 °F 87% 30.29 in 0.8 mi Calm Calm - N/A   Clear
1:03 AM 30.2 °F - 30.2 °F 100% 30.29 in 0.5 mi Calm Calm - N/A Fog Light Freezing Fog
1:14 AM 32.0 °F - 28.4 °F 87% 30.29 in 1.5 mi Calm Calm - N/A   Partly Cloudy
1:24 AM 32.0 °F - 30.2 °F 93% 30.29 in 1.0 mi Calm Calm - N/A   Mist
1:30 AM 32.0 °F - 30.2 °F 93% 30.29 in 2.0 mi Calm Calm - N/A   Clear
1:32 AM 32.0 °F - 30.2 °F 93% 30.29 in 3.0 mi Calm Calm - N/A   Partly Cloudy
1:45 AM 33.8 °F - 30.2 °F 87% 30.29 in 2.5 mi Calm Calm - N/A   Mostly Cloudy
1:50 AM 33.8 °F - 30.2 °F 87% 30.29 in 0.8 mi Calm Calm - N/A   Mist
1:53 AM 32.0 °F - 30.9 °F 96% 30.30 in 0.2 mi Calm Calm - N/A Fog Fog
2:28 AM 33.8 °F - 30.2 °F 87% 30.30 in 1.5 mi Calm Calm - N/A   Partly Cloudy
2:30 AM 33.8 °F - 30.2 °F 87% 30.30 in 3.0 mi Calm Calm - N/A   Partly Cloudy
2:37 AM 32.0 °F - 30.2 °F 93% 30.30 in 1.0 mi Calm Calm - N/A   Mist
2:42 AM 32.0 °F - 28.4 °F 87% 30.29 in 0.5 mi Calm Calm - N/A Fog Fog
2:49 AM 32.0 °F 28.7 °F 30.2 °F 93% 30.29 in 0.2 mi ESE 3.5 mph - N/A Fog Fog
2:53 AM 32.0 °F - 30.9 °F 96% 30.30 in 0.5 mi Calm Calm - N/A Fog Fog
2:57 AM 30.2 °F - 30.2 °F 100% 30.29 in 1.0 mi Calm Calm - N/A   Mist
3:01 AM 32.0 °F - 30.2 °F 93% 30.30 in 2.0 mi Calm Calm - N/A   Partly Cloudy
3:17 AM 30.2 °F - 30.2 °F 100% 30.30 in 1.5 mi Calm Calm - N/A   Partly Cloudy
3:22 AM 30.2 °F - 28.4 °F 93% 30.30 in 0.8 mi Calm Calm - N/A   Mist
3:53 AM 30.9 °F 27.5 °F 28.9 °F 92% 30.30 in 1.5 mi ESE 3.5 mph - N/A   Mostly Cloudy
3:59 AM 32.0 °F - 30.2 °F 93% 30.30 in 3.0 mi Calm Calm - N/A   Scattered Clouds
4:13 AM 32.0 °F - 30.2 °F 93% 30.30 in 3.0 mi Calm Calm - N/A   Mostly Cloudy
4:21 AM 33.8 °F - 30.2 °F 87% 30.30 in 4.0 mi Calm Calm - N/A   Mostly Cloudy
4:53 AM 33.1 °F - 30.9 °F 92% 30.30 in 5.0 mi Calm Calm - N/A   Overcast
5:09 AM 32.0 °F - 30.2 °F 93% 30.30 in 5.0 mi Calm Calm - N/A   Overcast
5:51 AM 33.8 °F - 30.2 °F 87% 30.30 in 6.0 mi Calm Calm - N/A   Overcast
6:00 AM 33.8 °F - 33.8 °F 100% 30.31 in 5.0 mi Calm Calm - N/A   Overcast
6:53 AM 35.1 °F - 33.1 °F 92% 30.31 in 5.0 mi Calm Calm - N/A   Overcast
7:53 AM 36.0 °F - 34.0 °F 93% 30.31 in 2.5 mi Calm Calm - 0.01 in   Overcast
8:31 AM 37.4 °F - 35.6 °F 93% 30.31 in 3.0 mi Calm Calm - 0.00 in   Overcast
8:53 AM 37.9 °F - 36.0 °F 93% 30.31 in 3.0 mi Calm Calm - 0.00 in   Overcast
9:00 AM 37.4 °F - 35.6 °F 93% 30.30 in 4.0 mi Calm Calm - N/A   Overcast
9:23 AM 37.4 °F - 35.6 °F 93% 30.30 in 4.0 mi Calm Calm - N/A   Overcast
9:53 AM 39.0 °F - 36.0 °F 89% 30.30 in 4.0 mi Calm Calm - N/A   Overcast
10:07 AM 39.2 °F - 35.6 °F 87% 30.30 in 4.0 mi Calm Calm - 0.00 in Rain Light Rain
10:31 AM 39.2 °F - 37.4 °F 93% 30.29 in 4.0 mi Calm Calm - 0.00 in Rain Light Rain
10:53 AM 39.9 °F - 37.0 °F 89% 30.28 in 3.0 mi Calm Calm - 0.00 in Rain Light Rain
11:53 AM 41.0 °F - 37.9 °F 89% 30.25 in 4.0 mi Calm Calm - 0.01 in   Overcast
12:53 PM 42.1 °F - 39.0 °F 89% 30.22 in 3.0 mi Calm Calm - 0.00 in   Overcast
1:53 PM 44.1 °F - 39.9 °F 85% 30.19 in 3.0 mi Calm Calm - 0.00 in   Overcast
2:12 PM 44.6 °F - 41.0 °F 87% 30.18 in 2.5 mi Calm Calm - N/A   Overcast
2:36 PM 44.6 °F - 41.0 °F 87% 30.17 in 3.0 mi Calm Calm - N/A   Overcast
2:53 PM 45.0 °F - 41.0 °F 86% 30.18 in 3.0 mi Calm Calm - N/A   Overcast
3:02 PM 46.4 °F - 42.8 °F 87% 30.17 in 3.0 mi Calm Calm - N/A   Overcast
3:53 PM 46.0 °F - 42.1 °F 86% 30.16 in 3.0 mi Calm Calm - N/A   Overcast
4:53 PM 45.0 °F - 42.1 °F 90% 30.14 in 4.0 mi Calm Calm - N/A   Overcast
5:53 PM 46.0 °F - 43.0 °F 89% 30.12 in 4.0 mi Calm Calm - N/A   Overcast
6:53 PM 57.0 °F - 53.1 °F 87% 30.11 in 7.0 mi South 6.9 mph - N/A   Overcast
7:53 PM 57.0 °F - 53.1 °F 87% 30.07 in 8.0 mi South 13.8 mph 19.6 mph N/A   Overcast
8:48 PM 57.2 °F - 53.6 °F 88% 30.05 in 7.0 mi South 12.7 mph - N/A   Overcast
8:53 PM 57.0 °F - 53.1 °F 87% 30.05 in 6.0 mi South 9.2 mph 18.4 mph N/A   Overcast
9:53 PM 55.9 °F - 53.1 °F 90% 30.04 in 6.0 mi South 5.8 mph - N/A   Overcast
10:38 PM 55.4 °F - 53.6 °F 94% 30.02 in 6.0 mi South 5.8 mph - N/A   Overcast
10:53 PM 55.9 °F - 53.1 °F 90% 30.01 in 6.0 mi Variable 6.9 mph - N/A   Overcast
11:53 PM 55.9 °F - 52.0 °F 87% 29.98 in 6.0 mi South 9.2 mph - N/A   Overcast